Zurück zum Katalog

QIANFAN-72

AktivKommunikationPO
NORAD 62802·PAYLOAD·🇨🇳 China

Gestartet Jan 23, 2025 von Taiyuan Satellite Launch Center

Loading…

Nächste Überflüge (nächste 24 Stunden)

TLE

AktuellSource: Space-Track

Epoche: Sep 14, 2026, 21:46 UTC

1 62802U 25016T   26257.90723200  .00000039  00000-0  41226-4 0  9998
2 62802  88.9649  74.3751 0017150 278.9326  80.9884 13.51020548 84516

Verfolge QIANFAN-72 in Echtzeit mit AllMySat

Download on the App Store